Regional Weather Roundup
Issued by NWS

Home | Current Version | Previous Version | Text Only | Print | Product List | Glossary On
Versions: 1 2 3 4 5 6 7 8 9 10 11 12 13 14 15 16 17 18 19 20 21 22 23 24 25 26 27 28 29 30 31 32 33 34 35 36 37 38 39 40 41 42 43 44 45 46 47 48 49 50
000
ASMX46 KSGX 040611
RWRMX

MEXICAN WEATHER ROUNDUP
NATIONAL WEATHER SERVICE SAN DIEGO CA
1100 PM PDT FRI JUL 03 2015

BAJA CALIFORNIA

CITY           SKY/WX    TMP DP  RH WIND       PRES   REMARKS
ENSENADA NW      N/A     66  32  28 N3        29.88S
LA PAZ           N/A    N/A N/A N/A MISG        N/A
TIJUANA        CLOUDY    66  59  77 CALM      29.93S

NORTHWESTERN MEXICO

CITY           SKY/WX    TMP DP  RH WIND       PRES   REMARKS
CULIACAN         N/A    N/A N/A N/A MISG        N/A
HERMOSILLO     CLOUDY    91  64  40 S7        29.79R

NORTHEASTERN MEXICO

CITY           SKY/WX    TMP DP  RH WIND       PRES   REMARKS
MONTERREY      CLEAR     73  68  83 E6        29.94S
TORREON        MOCLDY    82  63  51 NE3       30.01R

WESTERN MEXICO

CITY           SKY/WX    TMP DP  RH WIND       PRES   REMARKS
AGUASCALIENTES MOCLDY    57  55  94 S5        30.28S
GUADALAJARA    CLOUDY    63  61  94 S3        30.19R
MAZATLAN       MOCLDY    79  72  78 NE7       29.84R
PTO. VALLARTA  MOCLDY    84  77  79 CALM      29.88R
ZACATECAS      MOCLDY    59  52  77 S5        30.28S

CENTRAL MEXICO

CITY           SKY/WX    TMP DP  RH WIND       PRES   REMARKS
LEON           CLOUDY    61  59  94 CALM      30.31S
MEXICO CITY    CLOUDY    59  52  77 NW6       30.34S
S. LUIS POTOSI PTCLDY    61  52  72 CALM      30.25F
TAMPICO          N/A    N/A N/A N/A MISG        N/A
TOLUCA         MOCLDY    54  50  87 CALM      30.40S
VERACRUZ       TSTM      73  73 100 N6        29.96  VSB 1/2

SOUTHERN MEXICO

CITY           SKY/WX    TMP DP  RH WIND       PRES   REMARKS
ACAPULCO       MOCLDY    84  75  74 W6        29.84R
OAXACA         MOCLDY    64  59  82 N5        30.26R
TAPACHULA      PTCLDY    79  75  89 CALM      29.86S

YUCATAN PENINSULA

CITY           SKY/WX    TMP DP  RH WIND       PRES   REMARKS
CANCUN         MOCLDY    82  79  89 E7        30.04F
COZUMEL        PTCLDY    77  77 100 CALM      30.02F
MERIDA         MOCLDY    79  72  78 E5        30.00F

$$




USA.gov is the U.S. government's official web portal to all federal, state and local government web resources and services.